Weather History for McCall, ID

Change the Weather History Date:

Tuesday, May 12, 2009

  Actual Average Record
Temperature  
Mean Temperature 35 °F 45 °F  
Max Temperature 45 °F 58 °F 84 °F (1993)
Min Temperature 25 °F 32 °F 22 °F (1943)
Degree Days  
Heating Degree Days 30 20  
Month to date heating degree days 310 259  
Since 1 July heating degree days 8934 8894  
Cooling Degree Days 0 0  
Month to date cooling degree days 0 0  
Year to date cooling degree days 0 0  
Moisture  
Dew Point 26 °F    
Average Humidity 65    
Maximum Humidity 100    
Minimum Humidity 29    
Precipitation  
Precipitation 0.01 in 0.07 in 0.75 in (2003)
Month to date precipitation 1.66 0.82  
Year to date precipitation 8.77 8.41  
Sea Level Pressure  
Sea Level Pressure 29.87 in    
Wind  
Wind Speed 10 mph (West)    
Max Wind Speed 28 mph    
Max Gust Speed 37 mph    
Visibility 9 miles    
Events Snow    
T = Trace of Precipitation, MM = Missing Value Source: NWS Daily Summary

Daily Weather History Graph

Daily Weather History Graph

Search for Another Location

Airport:

Trip Planner

Search our weather history database for the weather conditions in past years. The results will help you decide how hot, cold, wet, or windy it might be!

Date:

Astronomy

May. 12, 2009 Rise Set
Actual Time 6:18 AM MDT 9:03 PM MDT
Civil Twilight 5:45 AM MDT 9:37 PM MDT
Nautical Twilight 5:02 AM MDT 10:20 PM MDT
Astronomical Twilight 4:13 AM MDT 11:10 PM MDT
Moon 12:07 AM MDT (5/12) 8:28 AM MDT (5/12)
Length of Visible Light 15h 52m
Length of Day
14h 44m
Waning Gibbous, 88% of the Moon is Illuminated
May 12
Waning Gibbous
May 17
Last Quarter
May 24
New
May 30
First Quarter
Jun 7
Full

Hourly Weather History & Observations

Time (MDT) Temp. Windchill Dew Point Humidity Pressure Visibility Wind Dir Wind Speed Gust Speed Precip Events Conditions
12:50 AM 37.9 °F 35.5 °F 35.1 °F 89% 29.77 in 10.0 mi North 3.5 mph - N/A   Clear
1:50 AM 39.0 °F 35.7 °F 34.0 °F 82% 29.75 in 10.0 mi North 4.6 mph - N/A   Mostly Cloudy
2:50 AM 39.9 °F 36.7 °F 34.0 °F 79% 29.74 in 10.0 mi North 4.6 mph - N/A   Overcast
3:50 AM 37.9 °F 35.5 °F 35.1 °F 89% 29.73 in 10.0 mi West 3.5 mph - N/A   Partly Cloudy
4:50 AM 37.0 °F 34.5 °F 34.0 °F 89% 29.75 in 10.0 mi East 3.5 mph - N/A   Partly Cloudy
5:50 AM 34.0 °F - 33.1 °F 96% 29.75 in 10.0 mi Calm Calm - N/A   Mostly Cloudy
6:50 AM 36.0 °F - 34.0 °F 93% 29.75 in 10.0 mi Calm Calm - N/A   Clear
7:50 AM 39.0 °F 32.3 °F 32.0 °F 76% 29.75 in 10.0 mi WSW 10.4 mph 17.3 mph N/A   Clear
8:50 AM 42.1 °F 33.6 °F 26.1 °F 53% 29.77 in 10.0 mi West 18.4 mph 24.2 mph N/A   Clear
9:50 AM 42.1 °F 33.1 °F 24.1 °F 49% 29.79 in 10.0 mi WSW 20.7 mph 28.8 mph N/A   Clear
10:50 AM - - - N/A% - - North - - N/A   Unknown
11:50 AM 43.0 °F 34.2 °F 15.1 °F 32% 29.84 in 10.0 mi WSW 20.7 mph 31.1 mph N/A   Clear
12:50 PM 42.1 °F 34.2 °F 17.1 °F 37% 29.86 in 10.0 mi SSW 16.1 mph 24.2 mph 0.00 in   Scattered Clouds
1:50 PM 42.1 °F 32.1 °F 12.0 °F 29% 29.87 in 10.0 mi West 25.3 mph 36.8 mph N/A   Partly Cloudy
2:50 PM 39.0 °F 29.3 °F 17.1 °F 41% 29.90 in 10.0 mi SW 19.6 mph 31.1 mph N/A   Overcast
3:35 PM 33.8 °F 25.3 °F 23.0 °F 65% 29.91 in 2.5 mi SW 11.5 mph 23.0 mph 0.00 in Snow Light Snow
3:43 PM 32.0 °F 20.5 °F 26.6 °F 80% 29.92 in 1.2 mi West 18.4 mph 29.9 mph 0.00 in Snow Light Snow
3:50 PM 33.1 °F 23.4 °F 28.0 °F 82% 29.96 in 2.0 mi West 13.8 mph - 0.00 in Snow Light Snow
3:57 PM 33.8 °F 23.9 °F 28.4 °F 81% 29.93 in 9.0 mi West 15.0 mph - 0.00 in   Mostly Cloudy
4:03 PM 35.6 °F 25.5 °F 28.4 °F 75% 29.93 in 10.0 mi West 17.3 mph 25.3 mph 0.00 in   Scattered Clouds
4:50 PM 36.0 °F 25.6 °F 24.1 °F 62% 29.95 in 10.0 mi SW 18.4 mph 23.0 mph 0.00 in Snow Light Snow
5:50 PM 36.0 °F 26.7 °F 21.9 °F 57% 29.97 in 10.0 mi WNW 15.0 mph 36.8 mph 0.00 in   Overcast
5:56 PM 35.6 °F 26.2 °F 23.0 °F 60% 29.93 in 10.0 mi WNW 15.0 mph - N/A   Mostly Cloudy
6:50 PM 35.1 °F 25.5 °F 23.0 °F 61% 29.99 in 9.0 mi West 15.0 mph 19.6 mph 0.01 in Snow Light Snow
7:50 PM 33.1 °F 27.7 °F 25.0 °F 72% 30.00 in 10.0 mi NW 5.8 mph - 0.00 in   Mostly Cloudy
8:50 PM 32.0 °F - 23.0 °F 69% 30.01 in 10.0 mi Calm Calm - N/A   Clear
9:50 PM 30.9 °F 27.5 °F 21.9 °F 69% 30.04 in 10.0 mi SSW 3.5 mph - N/A   Partly Cloudy
10:50 PM 28.0 °F - 21.9 °F 78% 30.04 in 10.0 mi Calm Calm - N/A   Mostly Cloudy